EW1514 Weather Reports


time (UTC)temp
F
wind
direction
speed
knots
gust
knots
rain 1hr
in
rain 24hr
in
rain mn
in
humidity
%
barometer
mb
20260508060040 62 341 0.0 2.6 0.00 0.01 0.00 83 1016.5
20260508054540 62 85 0.0 0.0 0.00 0.01 0.00 84 1016.1
20260508053040 61 85 0.0 0.0 0.00 0.01 0.00 84 1016.2
20260508051536 61 85 0.0 0.0 0.00 0.01 0.00 84 1016.1
20260508050034 60 85 0.0 0.0 0.00 0.01 0.00 85 1016.1
20260508044532 60 85 0.0 0.0 0.00 0.01 0.00 85 1016.0
20260508043029 60 85 0.0 0.0 0.00 0.01 0.00 84 1015.8
20260508041530 60 84 0.0 0.0 0.00 0.01 0.00 84 1015.6
20260508040024 60 84 0.0 0.0 0.00 0.01 0.00 84 1015.6
20260508034523 59 84 0.0 0.0 0.00 0.01 0.00 84 1015.8
20260508033023 59 84 0.0 0.0 0.00 0.01 0.00 83 1016.0
20260508031520 59 84 0.0 1.7 0.00 0.01 0.00 82 1015.8
20260508030020 59 84 0.0 0.0 0.00 0.01 0.00 81 1015.7
20260508024531 59 84 0.0 0.0 0.00 0.01 0.00 81 1015.8
20260508023024 59 84 0.0 0.0 0.00 0.01 0.00 81 1015.5
20260508021517 59 63 0.0 0.0 0.00 0.01 0.00 80 1015.4
20260508020016 59 63 0.0 0.0 0.00 0.01 0.00 80 1015.4
20260508014515 60 63 0.0 0.0 0.00 0.01 0.00 79 1015.4
20260508013012 60 63 0.0 0.0 0.00 0.01 0.00 79 1015.5
20260508011510 60 63 0.0 0.0 0.00 0.01 0.00 78 1015.8
20260508010011 60 63 0.0 0.0 0.00 0.01 0.00 78 1016.1
20260508004507 60 63 0.0 0.0 0.00 0.01 0.00 78 1016.1
20260508003006 60 63 0.0 0.0 0.00 0.01 0.00 77 1016.2
20260508001504 60 63 0.0 0.0 0.00 0.01 0.00 77 1016.4
20260508000003 60 63 0.0 0.0 0.00 0.01 0.00 77 1016.4
20260507234503 60 63 0.0 0.0 0.00 0.01 0.00 77 1016.4
20260507233100 61 63 0.0 1.7 0.00 0.01 0.00 77 1016.5
20260507231600 61 63 0.0 0.0 0.00 0.01 0.00 77 1016.7
20260507230158 61 63 0.0 1.7 0.00 0.01 0.00 77 1016.8
20260507224559 61 63 0.0 0.0 0.00 0.01 0.00 78 1017.0
20260507223054 62 63 0.0 0.0 0.00 0.01 0.00 77 1017.2
20260507221552 62 63 0.0 0.0 0.00 0.01 0.00 77 1017.2
20260507220051 62 63 0.0 0.0 0.00 0.01 0.00 77 1017.1
20260507214602 62 63 0.0 0.0 0.00 0.01 0.00 76 1017.1
20260507213049 62 63 0.0 0.0 0.00 0.01 0.00 76 1017.1
20260507211550 62 63 0.0 0.0 0.00 0.01 0.00 75 1017.2
20260507210045 63 63 0.0 0.0 0.00 0.01 0.00 74 1017.0
20260507204545 63 63 0.0 0.0 0.00 0.01 0.01 74 1017.0
20260507203101 63 63 0.0 0.0 0.00 0.01 0.01 73 1017.0
20260507201554 63 63 0.0 1.7 0.00 0.01 0.01 73 1017.0
20260507200059 64 32 0.0 0.0 0.00 0.01 0.01 72 1017.0
20260507194542 64 32 0.0 2.6 0.00 0.01 0.01 71 1017.1
20260507193046 65 32 0.0 1.7 0.00 0.01 0.01 71 1017.0
20260507191540 65 78 0.0 0.9 0.00 0.01 0.01 70 1017.0
20260507190040 65 116 0.0 0.0 0.00 0.01 0.01 70 1017.1
20260507184546 65 116 0.0 0.0 0.00 0.01 0.01 70 1016.8
20260507183038 66 82 0.0 1.7 0.00 0.01 0.01 69 1016.7
20260507181538 66 75 0.0 2.6 0.00 0.01 0.01 68 1016.7
20260507180040 67 13 0.0 0.9 0.00 0.01 0.01 67 1016.5
20260507174539 67 343 0.0 0.9 0.00 0.01 0.01 65 1016.8
20260507173037 67 78 0.0 1.7 0.00 0.01 0.01 65 1016.2
20260507171536 67 117 0.0 3.5 0.00 0.01 0.01 63 1016.1
20260507170037 68 150 1.7 3.5 0.00 0.01 0.01 63 1016.5
20260507164542 68 192 0.0 2.6 0.00 0.01 0.01 61 1016.7
20260507163034 69 202 0.0 4.3 0.00 0.01 0.01 61 1016.7
20260507161534 69 192 2.6 5.2 0.00 0.01 0.01 60 1016.8
20260507160033 70 186 1.7 3.5 0.00 0.01 0.01 60 1016.7
20260507154537 70 167 0.9 2.6 0.00 0.01 0.01 58 1016.6
20260507153033 71 289 0.9 3.5 0.00 0.01 0.01 57 1016.9
20260507151531 71 265 0.9 5.2 0.00 0.01 0.01 54 1016.9
20260507150030 71 282 0.9 4.3 0.00 0.01 0.01 52 1016.8
20260507144533 72 205 1.7 4.3 0.00 0.01 0.01 52 1016.9
20260507143031 71 286 1.7 3.5 0.00 0.01 0.01 53 1016.8
20260507141523 71 309 0.9 5.2 0.00 0.01 0.01 54 1016.8
20260507140022 70 348 1.7 7.0 0.00 0.01 0.01 55 1016.7
20260507134521 69 74 0.9 5.2 0.00 0.01 0.01 57 1016.7
20260507133017 68 22 0.9 7.0 0.00 0.01 0.01 58 1016.7
20260507131516 68 63 0.9 3.5 0.00 0.01 0.01 58 1017.0
20260507130014 67 52 0.0 3.5 0.00 0.01 0.01 61 1017.0
20260507124517 67 54 3.5 9.6 0.00 0.01 0.01 62 1016.8
20260507123015 67 42 3.5 6.1 0.00 0.01 0.01 67 1017.4
20260507121622 65 23 0.0 8.7 0.00 0.01 0.01 69 1017.7
20260507120011 66 74 2.6 9.6 0.01 0.01 0.01 70 1018.0
20260507114511 67 88 1.7 4.3 0.01 0.01 0.01 72 1018.3
20260507113014 67 331 0.0 0.9 0.01 0.01 0.01 69 1018.6
20260507111509 67 331 0.0 0.9 0.01 0.01 0.01 67 1018.7
20260507110007 68 331 0.0 1.7 0.00 0.00 0.00 66 1018.6
20260507104507 68 331 0.9 2.6 0.00 0.00 0.00 64 1018.4
20260507103008 68 320 0.9 5.2 0.00 0.00 0.00 63 1018.6
20260507101512 69 298 2.6 4.3 0.00 0.00 0.00 61 1018.5
20260507100006 69 309 2.6 3.5 0.00 0.00 0.00 61 1018.4
20260507094502 69 294 0.0 3.5 0.00 0.00 0.00 63 1018.3
20260507093059 69 259 1.7 3.5 0.00 0.00 0.00 61 1018.1
20260507091557 68 248 0.0 0.9 0.00 0.00 0.00 62 1017.7
20260507090100 68 248 0.0 2.6 0.00 0.00 0.00 64 1017.5
20260507084600 68 284 0.9 3.5 0.00 0.00 0.00 65 1017.5
20260507083051 68 190 0.0 4.3 0.00 0.00 0.00 65 1017.3
20260507081551 69 206 1.7 4.3 0.00 0.00 0.00 63 1017.1
20260507080104 69 234 2.6 4.3 0.00 0.00 0.00 59 1017.0
20260507074545 69 250 0.0 2.6 0.00 0.00 0.00 59 1016.7
20260507073050 69 115 0.0 0.9 0.00 0.00 0.00 62 1016.4
20260507071542 68 278 0.0 2.6 0.00 0.00 0.00 65 1016.6
20260507070041 68 203 0.9 3.5 0.00 0.00 0.00 66 1016.6
20260507064535 67 192 1.7 5.2 0.00 0.00 0.00 66 1016.7
20260507063034 68 229 1.7 5.2 0.00 0.00 0.00 64 1016.7
20260507061532 67 213 1.7 4.3 0.00 0.00 0.00 61 1016.7